Regional Weather Roundup
Issued by NWS

Home | Current Version | Previous Version | Text Only | Print | Product List | Glossary Off
Versions: 1 2 3 4 5 6 7 8 9 10 11 12 13 14 15 16 17 18 19 20 21 22 23 24 25 26 27

000
ASUS45 KSLC 191110
RWRUT

UTAH REGIONAL WEATHER ROUNDUP
NATIONAL WEATHER SERVICE SALT LAKE CITY UT
500 AM MDT SAT AUG 19 2017

UTZ001>011-023>025-191200-

NORTHERN UTAH

CITY           SKY/WX    TMP DP  RH WIND       PRES   REMARKS
BRIGHAM CITY   CLEAR     60  41  49 CALM      30.07F
HILL AFB       CLEAR     63  31  30 E17       30.09S
LOGAN          CLEAR     49  43  80 N3        30.09F
OGDEN          CLEAR     63  33  32 S9        30.07R
SALT LAKE CITY CLEAR     68  39  34 SE8       30.05F
TOOELE VALLEY  CLEAR     57  32  38 S8        30.07S
WENDOVER       CLEAR     67  35  30 S5        30.05S
HEBER CITY     CLEAR     45  37  76 CALM      30.19S
WEST JORDAN    CLEAR     64  41  42 CALM      30.09S

$$

UTZ011>015-024>027-191200-

CENTRAL/NORTHEAST UTAH

CITY           SKY/WX    TMP DP  RH WIND       PRES   REMARKS
PROVO AIRPORT  CLEAR     58  46  64 E6        30.10R
MOAB/CANYONLAN CLEAR     64  27  24 CALM      30.04S
DELTA          PTCLDY    61  36  39 W3        30.08S
PRICE          PTCLDY    59  35  40 CALM      30.16S
ROOSEVELT      CLEAR     54  41  62 SW8       30.15R
VERNAL         CLEAR     59  40  49 CALM      30.13S

$$

UTZ013>016-019>022-027-191200-

SOUTHERN UTAH

CITY           SKY/WX    TMP DP  RH WIND       PRES   REMARKS
BRYCE CANYON   CLEAR     47  38  71 W5        30.33S
CEDAR CITY     CLEAR     61  39  44 NE6       30.17R
MILFORD        CLEAR     59  41  51 S10       30.11S
ST GEORGE      SUNNY     76  42  29 CALM      29.98S
HANKSVILLE     PTCLDY    68  32  26 CALM      30.07S
BLANDING       CLEAR     58  35  41 NW3       30.23S

$$

REGIONAL REPORTS     COLORADO/ARIZONA

CITY           SKY/WX    TMP DP  RH WIND       PRES   REMARKS
CRAIG, CO      CLOUDY    43  35  73 CALM      30.22S
GRAND JUNCTION CLEAR     64  35  34 E12       30.10R
RIFLE, CO      CLEAR     53  32  44 S6        30.18S
MONTROSE, CO   CLEAR     57  39  51 S6        30.20S
CORTEZ, CO     CLOUDY    49  37  63 E6        30.19F
COLORADO CITY    N/A     55  46  71 E6        30.15F
PAGE, AZ       CLEAR     77  38  24 N5        30.05S
GRAND CANYON   CLEAR     44  33  65 CALM      30.27F
KINGMAN, AZ    CLEAR     69  36  29 S7        30.03S
FLAGSTAFF, AZ  PTCLDY    51  35  54 CALM      30.30S

$$

REGIONAL REPORTS    NEVADA/IDAHO/WYOMING

CITY           SKY/WX    TMP DP  RH WIND       PRES   REMARKS
LAS VEGAS, NV  CLEAR     84  38  19 SW5       29.90S
ELY, NY        MOCLDY    52  34  50 S9        30.21S
ELKO, NV       PTCLDY    50  30  46 CALM      30.13F
POCATELLO, ID  CLOUDY    54  30  40 E5        30.06S
BURLEY, ID     CLEAR     56  37  49 W6        30.03S
FORT BRIDGER,    N/A     61  25  26 SW9       30.28F
EVANSTON, WY   CLOUDY    53  31  42 SW9       30.27S
ROCK SPRINGS,  CLOUDY    57  29  34 SW12      30.22F
KEMMERER, WY     N/A     45  32  61 N3        30.26F

$$




USA.gov is the U.S. government's official web portal to all federal, state and local government web resources and services.